Flag for U.S.A. Weather past 2 weeks in Olympia, Washington, U.S.A.

Now
58 °F

Clear.


Feels Like: 58 °F
Forecast: 58 / 88 °F
Wind: No wind

Location: Olympia Airport

Current Time: Jul 6, 2015 at 4:42:14 AM

Latest Report: Jul 6, 2015 at 3:54 AM


Visibility: 9 mi

Pressure: 29.96 "Hg

Humidity: 84%

Dew point: 53 °F

Location of OlympiaLocation

Historic Weather in Olympia — Graph

°F

Olympia temperature yesterday

Maximum temperature yesterday: 94 °F (at 4:54 PM)
Minimum temperature yesterday: 55 °F (at 5:54 AM)
Average temperature yesterday: 75 °F

Past Weeks' High & Low Weather Summary

 TemperatureHumidityPressure
High94 °F (Jul 2, 3:54 PM)96% (Jun 30, 4:54 AM)30.17 "Hg (Jun 30, 4:54 AM)
Low46 °F (Jun 23, 3:54 AM)19% (Jul 5, 3:54 PM)29.75 "Hg (Jul 4, 6:54 PM)
Average71 °F57%29.99 "Hg
* Reported Jun 21 2:54 AM — Jul 6 2:54 AM, Olympia, Weather by CustomWeather, © 2015

Note: Actual official high and low records may vary slightly from our data, if they occured in-between our weather recording intervals... More about our weather records

Advertising

Olympia weather history for previous 24 hours

 ConditionsComfort  
Time TempWeatherWind HumidityBarometerVisibility
2:54 AM
Mon, Jul 6
60 °FClear.3 mph78%29.96 "Hg10 mi
1:54 AM62 °FClear.No wind73%29.94 "Hg10 mi
12:54 AM63 °FClear.No wind70%29.93 "Hg10 mi
11:54 PM
Sun, Jul 5
65 °FClear.3 mph63%29.92 "Hg10 mi
10:54 PM67 °FClear.7 mph66%29.90 "Hg10 mi
9:54 PM72 °FSunny.5 mph59%29.88 "Hg10 mi
8:54 PM77 °FSunny.9 mph48%29.85 "Hg10 mi
7:54 PM84 °FSunny.13 mph40%29.82 "Hg10 mi
6:54 PM91 °FSunny.10 mph30%29.80 "Hg10 mi
5:54 PM94 °FSunny.5 mph19%29.80 "Hg10 mi
4:54 PM94 °FSunny.7 mph19%29.81 "Hg10 mi
3:54 PM93 °FSunny.5 mph19%29.81 "Hg10 mi
2:54 PM91 °FSunny.N/A22%29.82 "Hg10 mi
1:54 PM88 °FSunny.6 mph26%29.83 "Hg10 mi
12:54 PM88 °FSunny.9 mph24%29.83 "Hg10 mi
11:54 AM85 °FSunny.8 mph27%29.83 "Hg10 mi
10:54 AM81 °FSunny.5 mph35%29.84 "Hg10 mi
9:54 AM76 °FSunny.No wind47%29.84 "Hg9 mi
8:54 AM71 °FSunny.No wind57%29.84 "Hg9 mi
7:54 AM66 °FSunny.No wind68%29.83 "Hg8 mi
6:54 AM60 °FSunny.No wind83%29.83 "Hg6 mi
5:54 AM55 °FFog.No wind87%29.82 "Hg4 mi
4:54 AM56 °FFog.No wind87%29.80 "Hg6 mi
Weather by CustomWeather, © 2015

See weather overviewHow to use our weather pages